| time (UTC) | temp F | wind direction | speed MPH | gust MPH | rain 1hr in | rain 24hr in | rain mn in | humidity % | barometer mb |
| 20260902040012 | 55 | 331 | 2.0 | 7.0 | 0.00 | 0.00 | 0.00 | 91 | 1007.1 |
| 20260902034512 | 55 | 46 | 1.0 | 6.0 | 0.00 | 0.00 | 0.00 | 92 | 1007.2 |
| 20260902033013 | 55 | 319 | 1.0 | 8.0 | 0.00 | 0.00 | 0.00 | 91 | 1007.1 |
| 20260902031508 | 55 | 339 | 1.0 | 5.0 | 0.00 | 0.00 | 0.00 | 91 | 1007.2 |
| 20260902030008 | 56 | 6 | 2.0 | 12.0 | 0.00 | 0.00 | 0.00 | 90 | 1007.3 |
| 20260902024506 | 56 | 6 | 2.0 | 9.0 | 0.00 | 0.00 | 0.00 | 89 | 1007.4 |
| 20260902023006 | 57 | 30 | 3.0 | 9.0 | 0.00 | 0.00 | 0.00 | 89 | 1007.3 |
| 20260902021514 | 57 | 55 | 2.0 | 7.0 | 0.00 | 0.00 | 0.00 | 89 | 1007.3 |
| 20260902020005 | 57 | 60 | 1.0 | 8.0 | 0.00 | 0.00 | 0.00 | 90 | 1007.3 |
| 20260902014509 | 58 | 346 | 4.0 | 10.0 | 0.00 | 0.00 | 0.00 | 90 | 1007.3 |
| 20260902013003 | 58 | 58 | 0.0 | 12.0 | 0.00 | 0.00 | 0.00 | 90 | 1007.3 |
| 20260902011501 | 58 | 42 | 0.0 | 5.0 | 0.00 | 0.00 | 0.00 | 91 | 1007.3 |
| 20260902010000 | 58 | 101 | 2.0 | 7.0 | 0.00 | 0.00 | 0.00 | 92 | 1007.2 |
| 20260902004600 | 57 | 56 | 2.0 | 7.0 | 0.00 | 0.00 | 0.00 | 92 | 1007.3 |
| 20260902003100 | 57 | 3 | 0.0 | 5.0 | 0.00 | 0.00 | 0.00 | 92 | 1007.3 |
| 20260902001557 | 57 | 37 | 0.0 | 6.0 | 0.00 | 0.00 | 0.00 | 92 | 1007.3 |
| 20260902000057 | 57 | 39 | 1.0 | 5.0 | 0.00 | 0.00 | 0.00 | 92 | 1007.4 |
| 20260901234606 | 57 | 59 | 0.0 | 4.0 | 0.00 | 0.00 | 0.00 | 92 | 1007.4 |
| 20260901233056 | 57 | 312 | 0.0 | 5.0 | 0.00 | 0.00 | 0.00 | 92 | 1007.4 |
| 20260901231553 | 56 | 31 | 0.0 | 6.0 | 0.00 | 0.00 | 0.00 | 92 | 1007.4 |
| 20260901230053 | 56 | 8 | 3.0 | 8.0 | 0.00 | 0.00 | 0.00 | 93 | 1007.5 |
| 20260901224553 | 55 | 349 | 0.0 | 3.0 | 0.00 | 0.00 | 0.00 | 93 | 1007.5 |
| 20260901223050 | 55 | 53 | 0.0 | 1.0 | 0.00 | 0.00 | 0.00 | 92 | 1007.5 |
| 20260901221615 | 56 | 337 | 0.0 | 5.0 | 0.00 | 0.00 | 0.00 | 92 | 1007.5 |
| 20260901220045 | 56 | 65 | 0.0 | 3.0 | 0.00 | 0.00 | 0.00 | 91 | 1007.6 |
| 20260901214544 | 57 | 39 | 1.0 | 3.0 | 0.00 | 0.00 | 0.00 | 92 | 1007.5 |
| 20260901213102 | 57 | 38 | 0.0 | 3.0 | 0.00 | 0.00 | 0.00 | 91 | 1007.4 |
| 20260901211550 | 57 | 58 | 1.0 | 3.0 | 0.00 | 0.00 | 0.00 | 91 | 1007.3 |
| 20260901210042 | 57 | 41 | 0.0 | 3.0 | 0.00 | 0.00 | 0.00 | 92 | 1007.4 |
| 20260901204541 | 57 | 78 | 0.0 | 2.0 | 0.00 | 0.00 | 0.00 | 93 | 1007.4 |
| 20260901203051 | 56 | 39 | 0.0 | 1.0 | 0.00 | 0.00 | 0.00 | 93 | 1007.3 |
| 20260901201540 | 55 | 39 | 0.0 | 1.0 | 0.00 | 0.00 | 0.00 | 94 | 1007.3 |
| 20260901200050 | 55 | 39 | 0.0 | 0.0 | 0.00 | 0.00 | 0.00 | 95 | 1007.3 |
| 20260901194538 | 54 | 39 | 0.0 | 0.0 | 0.00 | 0.00 | 0.00 | 94 | 1007.2 |
| 20260901193055 | 54 | 39 | 0.0 | 0.0 | 0.00 | 0.00 | 0.00 | 93 | 1007.3 |
| 20260901191538 | 55 | 39 | 0.0 | 0.0 | 0.00 | 0.00 | 0.00 | 92 | 1007.2 |
| 20260901190036 | 56 | 39 | 0.0 | 0.0 | 0.00 | 0.00 | 0.00 | 91 | 1007.2 |
| 20260901184539 | 57 | 39 | 0.0 | 0.0 | 0.00 | 0.00 | 0.00 | 90 | 1007.0 |
| 20260901183035 | 58 | 39 | 0.0 | 0.0 | 0.00 | 0.00 | 0.00 | 88 | 1007.0 |
| 20260901181537 | 59 | 39 | 0.0 | 0.0 | 0.00 | 0.00 | 0.00 | 86 | 1006.9 |
| 20260901180032 | 61 | 39 | 0.0 | 0.0 | 0.00 | 0.00 | 0.00 | 83 | 1006.9 |
| 20260901174534 | 62 | 39 | 0.0 | 0.0 | 0.00 | 0.00 | 0.00 | 80 | 1006.8 |
| 20260901173031 | 64 | 39 | 0.0 | 1.0 | 0.00 | 0.00 | 0.00 | 77 | 1006.8 |
| 20260901171531 | 65 | 39 | 0.0 | 1.0 | 0.00 | 0.00 | 0.00 | 74 | 1006.6 |
| 20260901170029 | 66 | 136 | 0.0 | 1.0 | 0.00 | 0.00 | 0.00 | 73 | 1006.6 |
| 20260901164528 | 66 | 117 | 0.0 | 3.0 | 0.00 | 0.00 | 0.00 | 70 | 1006.6 |
| 20260901163028 | 67 | 148 | 0.0 | 0.0 | 0.00 | 0.00 | 0.00 | 69 | 1006.5 |
| 20260901161533 | 69 | 11 | 0.0 | 5.0 | 0.00 | 0.00 | 0.00 | 64 | 1006.4 |
| 20260901160033 | 69 | 117 | 0.0 | 4.0 | 0.00 | 0.00 | 0.00 | 63 | 1006.5 |
| 20260901154526 | 69 | 107 | 1.0 | 7.0 | 0.00 | 0.00 | 0.00 | 62 | 1006.4 |
| 20260901153025 | 70 | 96 | 0.0 | 4.0 | 0.00 | 0.00 | 0.00 | 61 | 1006.3 |
| 20260901151525 | 70 | 139 | 2.0 | 5.0 | 0.00 | 0.00 | 0.00 | 59 | 1006.3 |
| 20260901150025 | 71 | 122 | 2.0 | 6.0 | 0.00 | 0.00 | 0.00 | 60 | 1006.4 |
| 20260901144524 | 71 | 121 | 2.0 | 5.0 | 0.00 | 0.00 | 0.00 | 60 | 1006.3 |
| 20260901143024 | 71 | 142 | 1.0 | 3.0 | 0.00 | 0.00 | 0.00 | 61 | 1006.3 |
| 20260901141532 | 70 | 133 | 0.0 | 7.0 | 0.00 | 0.00 | 0.00 | 63 | 1006.2 |
| 20260901140023 | 71 | 44 | 2.0 | 8.0 | 0.00 | 0.00 | 0.00 | 62 | 1006.3 |
| 20260901134522 | 71 | 115 | 2.0 | 4.0 | 0.00 | 0.00 | 0.00 | 59 | 1006.3 |
| 20260901133019 | 69 | 133 | 0.0 | 1.0 | 0.00 | 0.00 | 0.00 | 69 | 1006.3 |
| 20260901131523 | 68 | 133 | 0.0 | 3.0 | 0.00 | 0.00 | 0.00 | 69 | 1006.4 |
| 20260901130018 | 67 | 196 | 0.0 | 3.0 | 0.00 | 0.00 | 0.00 | 71 | 1006.5 |
| 20260901124518 | 68 | 127 | 1.0 | 4.0 | 0.00 | 0.00 | 0.00 | 66 | 1006.4 |
| 20260901123020 | 70 | 170 | 2.0 | 5.0 | 0.00 | 0.00 | 0.00 | 61 | 1006.4 |
| 20260901121516 | 68 | 150 | 0.0 | 0.0 | 0.00 | 0.00 | 0.00 | 70 | 1006.3 |
| 20260901120035 | 67 | 150 | 0.0 | 3.0 | 0.00 | 0.00 | 0.00 | 67 | 1006.4 |
| 20260901114518 | 69 | 119 | 0.0 | 3.0 | 0.00 | 0.00 | 0.00 | 65 | 1006.4 |
| 20260901113014 | 69 | 163 | 0.0 | 3.0 | 0.00 | 0.00 | 0.00 | 63 | 1006.3 |
| 20260901111513 | 69 | 144 | 0.0 | 4.0 | 0.00 | 0.00 | 0.00 | 67 | 1006.4 |
| 20260901110012 | 68 | 165 | 0.0 | 0.0 | 0.00 | 0.00 | 0.00 | 68 | 1006.4 |
| 20260901104512 | 70 | 165 | 0.0 | 4.0 | 0.00 | 0.00 | 0.00 | 63 | 1006.3 |
| 20260901103008 | 69 | 134 | 0.0 | 2.0 | 0.00 | 0.00 | 0.00 | 67 | 1006.2 |
| 20260901101505 | 68 | 130 | 1.0 | 3.0 | 0.00 | 0.00 | 0.00 | 67 | 1006.2 |
| 20260901100003 | 68 | 147 | 0.0 | 6.0 | 0.00 | 0.00 | 0.00 | 66 | 1006.1 |
| 20260901094505 | 68 | 145 | 0.0 | 3.0 | 0.00 | 0.00 | 0.00 | 68 | 1006.1 |
| 20260901093104 | 67 | 162 | 1.0 | 4.0 | 0.00 | 0.00 | 0.00 | 67 | 1006.1 |
| 20260901091601 | 66 | 290 | 0.0 | 5.0 | 0.00 | 0.00 | 0.00 | 71 | 1006.0 |
| 20260901090055 | 66 | 140 | 0.0 | 4.0 | 0.00 | 0.00 | 0.00 | 74 | 1005.9 |
| 20260901084555 | 66 | 122 | 1.0 | 6.0 | 0.00 | 0.00 | 0.00 | 73 | 1005.9 |
| 20260901083048 | 65 | 145 | 0.0 | 2.0 | 0.00 | 0.00 | 0.00 | 78 | 1005.9 |
| 20260901081548 | 64 | 145 | 1.0 | 5.0 | 0.00 | 0.00 | 0.00 | 78 | 1005.8 |
| 20260901080047 | 65 | 144 | 1.0 | 4.0 | 0.00 | 0.00 | 0.00 | 79 | 1005.8 |
| 20260901074542 | 64 | 105 | 0.0 | 4.0 | 0.00 | 0.00 | 0.00 | 82 | 1005.7 |
| 20260901073039 | 63 | 141 | 0.0 | 1.0 | 0.00 | 0.00 | 0.00 | 84 | 1005.6 |
| 20260901071536 | 63 | 141 | 0.0 | 1.0 | 0.00 | 0.00 | 0.00 | 89 | 1005.5 |
| 20260901070033 | 61 | 141 | 0.0 | 0.0 | 0.00 | 0.00 | 0.00 | 97 | 1005.5 |
| 20260901064538 | 59 | 141 | 0.0 | 0.0 | 0.00 | 0.00 | 0.00 | 98 | 1005.4 |
| 20260901063031 | 59 | 141 | 0.0 | 1.0 | 0.00 | 0.00 | 0.00 | 98 | 1005.3 |
| 20260901061525 | 59 | 141 | 0.0 | 0.0 | 0.00 | 0.00 | 0.00 | 99 | 1005.3 |
| 20260901060021 | 56 | 141 | 0.0 | 0.0 | 0.00 | 0.00 | 0.00 | 99 | 1005.4 |
| 20260901054520 | 55 | 141 | 0.0 | 0.0 | 0.00 | 0.00 | 0.00 | 99 | 1005.2 |
| 20260901053018 | 55 | 141 | 0.0 | 0.0 | 0.00 | 0.00 | 0.00 | 99 | 1005.2 |
| 20260901051516 | 55 | 141 | 0.0 | 0.0 | 0.00 | 0.00 | 0.00 | 99 | 1005.1 |
| 20260901050016 | 54 | 141 | 0.0 | 0.0 | 0.00 | 0.00 | 0.00 | 99 | 1005.1 |
| 20260901044514 | 54 | 141 | 0.0 | 0.0 | 0.00 | 0.00 | 0.00 | 99 | 1005.0 |
| 20260901043016 | 54 | 141 | 0.0 | 0.0 | 0.00 | 0.00 | 0.00 | 99 | 1004.9 |
| 20260901041513 | 54 | 141 | 0.0 | 0.0 | 0.00 | 0.00 | 0.00 | 99 | 1004.8 |